TimeAKDT,TemperatureF,Dew PointF,Humidity,Sea Level PressureIn,VisibilityMPH,Wind Direction,Wind SpeedMPH,Gust SpeedMPH,PrecipitationIn,Events,Conditions,WindDirDegrees,DateUTC
12:55 AM,38.7,37.2,95,30.29,10.0,Calm,Calm,-,N/A,,Overcast,0,2012-10-07 08:55:00
1:55 AM,38.5,37.6,97,30.30,10.0,SSW,3.5,-,N/A,,Overcast,200,2012-10-07 09:55:00
2:55 AM,37.9,36.9,96,30.30,10.0,Calm,Calm,-,N/A,,Scattered Clouds,0,2012-10-07 10:55:00
3:30 AM,35.6,35.6,100,30.30,2.5,Calm,Calm,-,N/A,,Scattered Clouds,0,2012-10-07 11:30:00
3:31 AM,35.6,35.6,100,30.30,2.0,Calm,Calm,-,N/A,,Scattered Clouds,0,2012-10-07 11:31:00
3:32 AM,35.6,35.6,100,30.29,1.8,Calm,Calm,-,N/A,,Scattered Clouds,0,2012-10-07 11:32:00
3:35 AM,35.6,35.6,100,30.29,1.2,Calm,Calm,-,N/A,,Scattered Clouds,0,2012-10-07 11:35:00
3:36 AM,35.6,35.6,100,30.29,1.0,Calm,Calm,-,N/A,,Scattered Clouds,0,2012-10-07 11:36:00
3:38 AM,35.6,35.6,100,30.29,0.8,Calm,Calm,-,N/A,,Scattered Clouds,0,2012-10-07 11:38:00
3:40 AM,35.6,35.6,100,30.29,0.8,Calm,Calm,-,N/A,,Partly Cloudy,0,2012-10-07 11:40:00
3:45 AM,35.6,35.6,100,30.29,0.8,Calm,Calm,-,N/A,,Partly Cloudy,0,2012-10-07 11:45:00
3:49 AM,35.6,35.6,100,30.30,1.0,Calm,Calm,-,N/A,,Partly Cloudy,0,2012-10-07 11:49:00
3:50 AM,35.6,35.6,100,30.30,1.2,Calm,Calm,-,N/A,,Partly Cloudy,0,2012-10-07 11:50:00
3:51 AM,35.6,35.6,100,30.30,1.5,Calm,Calm,-,N/A,,Partly Cloudy,0,2012-10-07 11:51:00
3:53 AM,35.6,35.6,100,30.30,2.5,Calm,Calm,-,N/A,,Clear,0,2012-10-07 11:53:00
3:54 AM,35.6,35.6,100,30.30,3.0,Calm,Calm,-,N/A,,Clear,0,2012-10-07 11:54:00
3:55 AM,35.4,34.7,97,30.30,4.0,Calm,Calm,-,N/A,,Clear,0,2012-10-07 11:55:00
4:04 AM,35.6,33.8,93,30.30,4.0,Calm,Calm,-,N/A,,Clear,0,2012-10-07 12:04:00
4:55 AM,34.2,33.4,97,30.29,9.0,Calm,Calm,-,N/A,,Scattered Clouds,0,2012-10-07 12:55:00
5:03 AM,33.8,33.8,100,30.29,2.5,Calm,Calm,-,N/A,,Partly Cloudy,0,2012-10-07 13:03:00
5:04 AM,33.8,33.8,100,30.29,2.0,Calm,Calm,-,N/A,,Partly Cloudy,0,2012-10-07 13:04:00
5:06 AM,33.8,33.8,100,30.28,1.8,Calm,Calm,-,N/A,,Clear,0,2012-10-07 13:06:00
5:07 AM,33.8,33.8,100,30.28,1.5,Calm,Calm,-,N/A,,Clear,0,2012-10-07 13:07:00
5:13 AM,33.8,33.8,100,30.28,1.5,Calm,Calm,-,N/A,,Clear,0,2012-10-07 13:13:00
5:14 AM,33.8,33.8,100,30.28,1.8,Calm,Calm,-,N/A,,Clear,0,2012-10-07 13:14:00
5:15 AM,33.8,33.8,100,30.28,2.0,Calm,Calm,-,N/A,,Clear,0,2012-10-07 13:15:00
5:17 AM,33.8,33.8,100,30.28,2.5,Calm,Calm,-,N/A,,Clear,0,2012-10-07 13:17:00
5:18 AM,33.8,33.8,100,30.28,3.0,Calm,Calm,-,N/A,,Clear,0,2012-10-07 13:18:00
5:28 AM,33.8,33.8,100,30.27,4.0,Calm,Calm,-,N/A,,Clear,0,2012-10-07 13:28:00
5:55 AM,34.7,34.0,97,30.27,10.0,Calm,Calm,-,N/A,,Partly Cloudy,0,2012-10-07 13:55:00
6:55 AM,33.4,32.5,96,30.27,10.0,Calm,Calm,-,N/A,,Mostly Cloudy,0,2012-10-07 14:55:00
7:55 AM,34.0,33.3,97,30.27,10.0,Calm,Calm,-,N/A,,Overcast,0,2012-10-07 15:55:00
8:55 AM,34.7,34.0,97,30.27,10.0,Calm,Calm,-,N/A,,Overcast,0,2012-10-07 16:55:00
9:55 AM,35.6,34.5,96,30.27,10.0,Calm,Calm,-,N/A,,Overcast,0,2012-10-07 17:55:00
10:55 AM,37.4,36.1,95,30.27,10.0,Calm,Calm,-,N/A,,Overcast,0,2012-10-07 18:55:00
11:07 AM,37.4,37.4,100,30.27,10.0,Calm,Calm,-,N/A,,Mostly Cloudy,0,2012-10-07 19:07:00
11:55 AM,40.6,38.8,93,30.27,10.0,Calm,Calm,-,N/A,,Mostly Cloudy,0,2012-10-07 19:55:00
12:55 PM,41.0,39.2,93,30.27,10.0,North,4.6,-,N/A,,Mostly Cloudy,10,2012-10-07 20:55:00
1:55 PM,41.9,39.0,90,30.25,10.0,Calm,Calm,-,N/A,,Overcast,0,2012-10-07 21:55:00
2:55 PM,42.8,39.2,87,30.25,10.0,Calm,Calm,-,N/A,,Overcast,0,2012-10-07 22:55:00
3:55 PM,43.2,40.1,89,30.25,10.0,Calm,Calm,-,0.00,Rain,Light Rain,0,2012-10-07 23:55:00
5:55 PM,42.1,40.5,94,30.24,10.0,Calm,Calm,-,0.02,Rain,Light Rain,0,2012-10-08 01:55:00
6:55 PM,41.2,40.1,96,30.24,8.0,Calm,Calm,-,0.03,Rain,Light Rain,0,2012-10-08 02:55:00
7:55 PM,40.8,39.9,97,30.24,10.0,Calm,Calm,-,0.03,Rain,Light Rain,0,2012-10-08 03:55:00
8:55 PM,40.5,39.6,97,30.22,9.0,Calm,Calm,-,0.01,Rain,Light Rain,0,2012-10-08 04:55:00
9:55 PM,40.1,39.4,97,30.22,10.0,Calm,Calm,-,0.02,Rain,Light Rain,0,2012-10-08 05:55:00
10:16 PM,41.0,39.2,93,30.22,8.0,Calm,Calm,-,N/A,Rain,Light Rain,0,2012-10-08 06:16:00
10:54 PM,39.2,39.2,100,30.21,7.0,Calm,Calm,-,N/A,Rain,Light Rain,0,2012-10-08 06:54:00
10:55 PM,40.1,39.2,97,30.21,7.0,North,3.5,-,0.01,Rain,Light Rain,350,2012-10-08 06:55:00
11:18 PM,39.2,39.2,100,30.21,3.0,North,4.6,-,N/A,Rain,Light Rain,350,2012-10-08 07:18:00
11:19 PM,39.2,39.2,100,30.21,3.0,North,4.6,-,N/A,Rain,Light Rain,350,2012-10-08 07:19:00
11:21 PM,39.2,39.2,100,30.20,2.5,North,4.6,-,N/A,Rain,Light Rain,350,2012-10-08 07:21:00
11:25 PM,39.2,39.2,100,30.20,2.5,North,4.6,-,N/A,Rain,Light Rain,350,2012-10-08 07:25:00
11:29 PM,39.2,39.2,100,30.20,2.5,NNW,4.6,-,N/A,Rain,Light Rain,340,2012-10-08 07:29:00
11:32 PM,39.2,39.2,100,30.21,2.5,NNW,4.6,-,N/A,Rain,Light Rain,340,2012-10-08 07:32:00
11:36 PM,39.2,39.2,100,30.21,3.0,NNW,4.6,-,N/A,Rain,Light Rain,340,2012-10-08 07:36:00
11:40 PM,39.2,39.2,100,30.20,4.0,NNW,3.5,-,N/A,Rain,Light Rain,340,2012-10-08 07:40:00
11:55 PM,39.9,39.2,97,30.20,7.0,North,5.8,-,0.02,Rain,Light Rain,350,2012-10-08 07:55:00